Home > Weather > Wals-Siezenheim > Past weeks

Flag for Austria Weather for the Past 2 Weeks in Wals-Siezenheim, Salzburg, Austria

Now
41 °F

Scattered clouds.


Feels Like: 41 °F
Forecast: 26 / 43 °F
Wind: 2 mph from North

Location: Salzburg-Flughafen

Current Time: Feb 11, 2016 at 3:02:08 PM

Latest Report: Feb 11, 2016 at 2:20 PM


Visibility: N/A

Pressure: 29.74 "Hg

Humidity: 53%

Dew point: 25 °F

Location of Wals-SiezenheimLocation

Historic Weather in Wals-Siezenheim — Graph

°F

Wals-Siezenheim Temperature Yesterday

Maximum temperature yesterday: 37 °F (at 12:20 AM)
Minimum temperature yesterday: 32 °F (at 11:50 AM)
Average temperature yesterday: 36 °F

High & Low Weather Summary for the Past Weeks

 TemperatureHumidityPressure
High59 °F (Feb 1, 1:50 PM)100% (Jan 28, 11:20 PM)30.45 "Hg (Jan 28, 11:20 PM)
Low30 °F (Jan 30, 7:50 AM)29% (Feb 9, 2:50 PM)29.21 "Hg (Feb 9, 9:20 PM)
Average42 °F79%30.02 "Hg
* Reported Jan 27 1:20 PM — Feb 11 1:50 PM, Wals-Siezenheim, Weather by CustomWeather, © 2016

Note: Actual official high and low records may vary slightly from our data, if they occured in-between our weather recording intervals... More about our weather records

Advertising

Wals-Siezenheim Weather History for the Previous 24 Hours

 ConditionsComfort  
Time TempWeatherWind HumidityBarometerVisibility
1:50 PM
Thu, Feb 11
43 °FPartly sunny.3 mph53%29.74 "HgN/A
1:20 PM41 °FPartly sunny.5 mph57%29.77 "HgN/A
12:50 PM41 °FPartly sunny.6 mph61%29.77 "HgN/A
12:20 PM39 °FPartly sunny.7 mph70%29.77 "HgN/A
11:50 AM37 °FPartly sunny.7 mph75%29.77 "HgN/A
11:20 AM37 °FPartly sunny.10 mph81%29.77 "HgN/A
10:50 AM36 °FPartly sunny.8 mph81%29.77 "HgN/A
10:20 AM36 °FPartly sunny.7 mph81%29.77 "HgN/A
9:50 AM36 °FPartly sunny.6 mph75%29.77 "HgN/A
9:20 AM36 °FPartly sunny.7 mph81%29.77 "HgN/A
8:50 AM34 °FPartly sunny.7 mph87%29.74 "HgN/A
8:20 AM36 °FPartly sunny.5 mph65%29.74 "HgN/A
7:50 AM36 °FPartly sunny.7 mph70%29.74 "HgN/A
7:20 AM36 °FPassing clouds.7 mph70%29.74 "HgN/A
6:50 AM36 °FPassing clouds.9 mph70%29.74 "HgN/A
6:20 AM34 °FPassing clouds.3 mph81%29.74 "HgN/A
5:50 AM36 °FPassing clouds.7 mph70%29.74 "HgN/A
5:20 AM36 °FPassing clouds.2 mph70%29.71 "HgN/A
4:50 AM36 °FOvercast.5 mph75%29.71 "HgN/A
4:20 AM36 °FPassing clouds.9 mph75%29.71 "HgN/A
3:50 AM36 °FPassing clouds.8 mph75%29.71 "HgN/A
3:20 AM36 °FLight snow. Passing clouds.15 mph70%29.68 "HgN/A
2:50 AM37 °FPassing clouds.8 mph60%29.68 "HgN/A
1:50 AM34 °FPartly cloudy.2 mph87%29.68 "HgN/A
1:20 AM36 °FPassing clouds.6 mph70%29.65 "HgN/A
12:50 AM37 °FPassing clouds.9 mph65%29.65 "HgN/A
11:50 PM
Wed, Feb 10
36 °FPartly cloudy.7 mph75%29.65 "HgN/A
10:50 PM34 °FSnow flurries. Partly cloudy.7 mph87%29.65 "HgN/A
9:50 PM36 °FPartly cloudy.10 mph81%29.62 "HgN/A
9:20 PM36 °FSnow flurries. Partly cloudy.7 mph81%29.59 "HgN/A
8:50 PM36 °FPartly cloudy.8 mph75%29.59 "HgN/A
8:20 PM37 °FLight rain. Partly cloudy.15 mph70%29.59 "HgN/A
7:50 PM36 °FPassing clouds.6 mph81%29.59 "HgN/A
7:20 PM36 °FPassing clouds.7 mph75%29.56 "HgN/A
6:50 PM36 °FOvercast.6 mph75%29.56 "HgN/A
6:20 PM37 °FOvercast.10 mph70%29.56 "HgN/A
5:50 PM37 °FPassing clouds.9 mph65%29.53 "HgN/A
5:20 PM37 °FPartly sunny.14 mph65%29.53 "HgN/A
4:50 PM37 °FPartly sunny.7 mph65%29.50 "HgN/A
4:20 PM37 °FPartly sunny.7 mph75%29.50 "HgN/A
3:50 PM37 °FPartly sunny.6 mph75%29.50 "HgN/A
3:20 PM37 °FPartly sunny.10 mph75%29.50 "HgN/A
Weather by CustomWeather, © 2016

See weather overviewHow to use our weather pages